Time,TemperatureF,DewpointF,PressureIn,WindDirection,WindDirectionDegrees,WindSpeedMPH,WindSpeedGustMPH,Humidity,HourlyPrecipIn,Conditions,Clouds,dailyrainin,SoftwareType,DateUTC
2013-10-15 00:05:00,52.6,50.0,30.24,SE,139,0.0,-999.0,90,-99.99,,,0.00,weatherlink.com 1.10,2013-10-15 04:05:00,
2013-10-15 00:20:00,51.9,49.0,30.24,SE,139,0.0,-999.0,91,-99.99,,,0.00,weatherlink.com 1.10,2013-10-15 04:20:00,
2013-10-15 00:35:00,51.4,50.0,30.23,SE,139,0.0,-999.0,93,-99.99,,,0.00,weatherlink.com 1.10,2013-10-15 04:35:00,
2013-10-15 00:50:00,51.2,49.0,30.23,SE,139,0.0,-999.0,93,-99.99,,,0.00,weatherlink.com 1.10,2013-10-15 04:50:00,
2013-10-15 01:05:00,51.1,50.0,30.23,SE,139,0.0,-999.0,94,-99.99,,,0.00,weatherlink.com 1.10,2013-10-15 05:05:00,
2013-10-15 01:20:00,50.9,49.0,30.23,SE,139,0.0,-999.0,94,-99.99,,,0.00,weatherlink.com 1.10,2013-10-15 05:20:00,
2013-10-15 01:35:00,50.4,49.0,30.24,SE,139,0.0,-999.0,93,-99.99,,,0.00,weatherlink.com 1.10,2013-10-15 05:35:00,
2013-10-15 01:50:00,50.1,49.0,30.24,SE,139,0.0,-999.0,94,-99.99,,,0.00,weatherlink.com 1.10,2013-10-15 05:50:00,
2013-10-15 02:05:00,50.1,49.0,30.24,SE,139,0.0,-999.0,95,-99.99,,,0.00,weatherlink.com 1.10,2013-10-15 06:05:00,
2013-10-15 02:20:00,50.1,49.0,30.25,SE,139,0.0,-999.0,95,-99.99,,,0.00,weatherlink.com 1.10,2013-10-15 06:20:00,
2013-10-15 02:35:00,50.1,49.0,30.25,SE,139,0.0,-999.0,95,-99.99,,,0.00,weatherlink.com 1.10,2013-10-15 06:35:00,
2013-10-15 02:50:00,50.3,49.0,30.24,SE,139,0.0,-999.0,96,-99.99,,,0.00,weatherlink.com 1.10,2013-10-15 06:50:00,
2013-10-15 03:06:00,50.3,49.0,30.23,SE,139,0.0,-999.0,95,-99.99,,,0.00,weatherlink.com 1.10,2013-10-15 07:06:00,
2013-10-15 03:21:00,50.1,49.0,30.23,SE,139,0.0,-999.0,95,-99.99,,,0.00,weatherlink.com 1.10,2013-10-15 07:21:00,
2013-10-15 03:36:00,49.9,49.0,30.23,SE,139,0.0,-999.0,95,-99.99,,,0.00,weatherlink.com 1.10,2013-10-15 07:36:00,
2013-10-15 03:51:00,49.7,48.0,30.23,SE,139,0.0,-999.0,95,-99.99,,,0.00,weatherlink.com 1.10,2013-10-15 07:51:00,
2013-10-15 04:06:00,49.4,48.0,30.23,SE,139,0.0,-999.0,95,-99.99,,,0.00,weatherlink.com 1.10,2013-10-15 08:06:00,
2013-10-15 04:21:00,49.2,48.0,30.23,SE,139,0.0,-999.0,95,-99.99,,,0.00,weatherlink.com 1.10,2013-10-15 08:21:00,
2013-10-15 04:36:00,49.4,48.0,30.23,SE,139,0.0,-999.0,96,-99.99,,,0.00,weatherlink.com 1.10,2013-10-15 08:36:00,
2013-10-15 04:51:00,49.5,48.0,30.23,SE,139,0.0,-999.0,96,-99.99,,,0.00,weatherlink.com 1.10,2013-10-15 08:51:00,
2013-10-15 05:07:00,49.6,49.0,30.24,SE,139,0.0,-999.0,96,-99.99,,,0.00,weatherlink.com 1.10,2013-10-15 09:07:00,
2013-10-15 05:22:00,49.8,49.0,30.23,SE,139,0.0,-999.0,96,-99.99,,,0.00,weatherlink.com 1.10,2013-10-15 09:22:00,
2013-10-15 05:37:00,50.0,49.0,30.24,SE,139,0.0,-999.0,96,-99.99,,,0.00,weatherlink.com 1.10,2013-10-15 09:37:00,
2013-10-15 05:52:00,50.1,49.0,30.24,SE,139,0.0,-999.0,96,-99.99,,,0.00,weatherlink.com 1.10,2013-10-15 09:52:00,
2013-10-15 06:07:00,50.3,49.0,30.24,SE,139,0.0,-999.0,96,-99.99,,,0.00,weatherlink.com 1.10,2013-10-15 10:07:00,
2013-10-15 06:22:00,50.2,49.0,30.24,SE,139,0.0,-999.0,96,-99.99,,,0.00,weatherlink.com 1.10,2013-10-15 10:22:00,
2013-10-15 06:37:00,50.4,49.0,30.23,SE,139,0.0,-999.0,96,-99.99,,,0.00,weatherlink.com 1.10,2013-10-15 10:37:00,
2013-10-15 06:52:00,50.4,49.0,30.23,SE,139,0.0,-999.0,96,-99.99,,,0.00,weatherlink.com 1.10,2013-10-15 10:52:00,
2013-10-15 07:07:00,50.3,49.0,30.24,SE,139,0.0,-999.0,96,-99.99,,,0.00,weatherlink.com 1.10,2013-10-15 11:07:00,
2013-10-15 07:22:00,50.5,49.0,30.25,SE,139,0.0,-999.0,96,-99.99,,,0.00,weatherlink.com 1.10,2013-10-15 11:22:00,
2013-10-15 07:37:00,50.8,50.0,30.25,SE,139,0.0,-999.0,96,-99.99,,,0.00,weatherlink.com 1.10,2013-10-15 11:37:00,
2013-10-15 07:52:00,51.2,50.0,30.25,SE,139,0.0,-999.0,96,-99.99,,,0.00,weatherlink.com 1.10,2013-10-15 11:52:00,
2013-10-15 08:08:00,51.7,51.0,30.26,SE,139,0.0,-999.0,96,-99.99,,,0.00,weatherlink.com 1.10,2013-10-15 12:08:00,
2013-10-15 08:23:00,52.4,51.0,30.26,SE,139,0.0,-999.0,96,-99.99,,,0.00,weatherlink.com 1.10,2013-10-15 12:23:00,
2013-10-15 08:38:00,53.1,52.0,30.26,SE,139,0.0,-999.0,95,-99.99,,,0.00,weatherlink.com 1.10,2013-10-15 12:38:00,
2013-10-15 08:53:00,53.8,52.0,30.26,SE,139,0.0,-999.0,95,-99.99,,,0.00,weatherlink.com 1.10,2013-10-15 12:53:00,
2013-10-15 09:08:00,54.5,53.0,30.26,SE,139,0.0,-999.0,94,-99.99,,,0.00,weatherlink.com 1.10,2013-10-15 13:08:00,
2013-10-15 09:23:00,55.1,54.0,30.26,SE,139,0.0,-999.0,94,-99.99,,,0.00,weatherlink.com 1.10,2013-10-15 13:23:00,
2013-10-15 09:38:00,56.1,54.0,30.26,SE,139,0.0,-999.0,93,-99.99,,,0.00,weatherlink.com 1.10,2013-10-15 13:38:00,
2013-10-15 09:54:00,57.1,55.0,30.26,SE,139,0.0,-999.0,91,-99.99,,,0.00,weatherlink.com 1.10,2013-10-15 13:54:00,
2013-10-15 10:08:00,58.2,55.0,30.26,SE,139,0.0,-999.0,89,-99.99,,,0.00,weatherlink.com 1.10,2013-10-15 14:08:00,
2013-10-15 10:23:00,59.4,55.0,30.25,SE,139,0.0,-999.0,85,-99.99,,,0.00,weatherlink.com 1.10,2013-10-15 14:23:00,
2013-10-15 10:39:00,60.5,54.0,30.25,NNW,343,0.0,-999.0,80,-99.99,,,0.00,weatherlink.com 1.10,2013-10-15 14:39:00,
2013-10-15 10:54:00,61.2,54.0,30.25,ESE,113,5.0,-999.0,77,-99.99,,,0.00,weatherlink.com 1.10,2013-10-15 14:54:00,
2013-10-15 11:09:00,61.4,54.0,30.25,East,89,5.0,-999.0,77,-99.99,,,0.00,weatherlink.com 1.10,2013-10-15 15:09:00,
2013-10-15 11:24:00,61.7,54.0,30.25,SE,130,0.0,-999.0,77,-99.99,,,0.00,weatherlink.com 1.10,2013-10-15 15:24:00,
2013-10-15 11:39:00,61.8,55.0,30.24,SE,138,4.0,-999.0,77,-99.99,,,0.00,weatherlink.com 1.10,2013-10-15 15:39:00,
2013-10-15 11:54:00,61.9,54.0,30.24,SE,139,5.0,-999.0,76,-99.99,,,0.00,weatherlink.com 1.10,2013-10-15 15:54:00,
2013-10-15 12:09:00,62.2,55.0,30.24,SSE,151,0.0,-999.0,76,-99.99,,,0.00,weatherlink.com 1.10,2013-10-15 16:09:00,
2013-10-15 12:24:00,62.7,54.0,30.24,SSE,150,4.0,-999.0,74,-99.99,,,0.00,weatherlink.com 1.10,2013-10-15 16:24:00,
2013-10-15 12:39:00,62.8,54.0,30.23,SE,143,6.0,-999.0,74,-99.99,,,0.00,weatherlink.com 1.10,2013-10-15 16:39:00,
2013-10-15 12:54:00,63.2,54.0,30.22,SSE,148,0.0,-999.0,73,-99.99,,,0.00,weatherlink.com 1.10,2013-10-15 16:54:00,
2013-10-15 13:10:00,63.2,54.0,30.22,SE,145,4.0,-999.0,73,-99.99,,,0.00,weatherlink.com 1.10,2013-10-15 17:10:00,
2013-10-15 13:25:00,62.9,55.0,30.21,SE,138,0.0,-999.0,74,-99.99,,,0.00,weatherlink.com 1.10,2013-10-15 17:25:00,
2013-10-15 13:40:00,62.7,54.0,30.21,SE,130,1.0,-999.0,74,-99.99,,,0.00,weatherlink.com 1.10,2013-10-15 17:40:00,
2013-10-15 13:55:00,62.6,55.0,30.21,SE,133,0.0,-999.0,75,-99.99,,,0.00,weatherlink.com 1.10,2013-10-15 17:55:00,
2013-10-15 14:10:00,62.7,55.0,30.20,SSE,167,3.0,-999.0,77,-99.99,,,0.00,weatherlink.com 1.10,2013-10-15 18:10:00,
2013-10-15 14:25:00,62.8,55.0,30.20,South,174,5.0,-999.0,76,-99.99,,,0.00,weatherlink.com 1.10,2013-10-15 18:25:00,
2013-10-15 14:40:00,63.0,56.0,30.20,SSE,163,4.0,-999.0,77,-99.99,,,0.00,weatherlink.com 1.10,2013-10-15 18:40:00,
2013-10-15 14:55:00,63.0,55.0,30.19,SE,140,0.0,-999.0,75,-99.99,,,0.00,weatherlink.com 1.10,2013-10-15 18:55:00,
2013-10-15 15:10:00,62.8,55.0,30.19,ESE,114,0.0,-999.0,75,-99.99,,,0.00,weatherlink.com 1.10,2013-10-15 19:10:00,
2013-10-15 15:25:00,62.9,55.0,30.19,SE,134,0.0,-999.0,76,-99.99,,,0.00,weatherlink.com 1.10,2013-10-15 19:25:00,
2013-10-15 15:40:00,63.2,55.0,30.18,ESE,119,1.0,-999.0,75,-99.99,,,0.00,weatherlink.com 1.10,2013-10-15 19:40:00,
2013-10-15 15:55:00,63.1,55.0,30.18,ESE,121,0.0,-999.0,76,-99.99,,,0.00,weatherlink.com 1.10,2013-10-15 19:55:00,
2013-10-15 16:11:00,63.0,55.0,30.17,ESE,120,2.0,-999.0,76,-99.99,,,0.00,weatherlink.com 1.10,2013-10-15 20:11:00,
2013-10-15 16:26:00,63.1,55.0,30.17,SE,146,0.0,-999.0,76,-99.99,,,0.00,weatherlink.com 1.10,2013-10-15 20:26:00,
2013-10-15 16:41:00,63.2,56.0,30.17,SSE,148,0.0,-999.0,77,-99.99,,,0.00,weatherlink.com 1.10,2013-10-15 20:41:00,
2013-10-15 16:57:00,63.2,56.0,30.17,SE,146,2.0,-999.0,76,-99.99,,,0.00,weatherlink.com 1.10,2013-10-15 20:57:00,
2013-10-15 17:11:00,62.5,55.0,30.17,ESE,123,2.0,-999.0,76,-99.99,,,0.00,weatherlink.com 1.10,2013-10-15 21:11:00,
2013-10-15 17:26:00,62.1,56.0,30.17,ESE,123,0.0,-999.0,79,-99.99,,,0.00,weatherlink.com 1.10,2013-10-15 21:26:00,
2013-10-15 17:41:00,61.8,56.0,30.17,ESE,123,0.0,-999.0,80,-99.99,,,0.00,weatherlink.com 1.10,2013-10-15 21:41:00,
2013-10-15 17:56:00,61.3,56.0,30.18,ESE,123,0.0,-999.0,82,-99.99,,,0.00,weatherlink.com 1.10,2013-10-15 21:56:00,
2013-10-15 18:11:00,60.8,56.0,30.18,ESE,123,0.0,-999.0,83,-99.99,,,0.00,weatherlink.com 1.10,2013-10-15 22:11:00,
2013-10-15 18:26:00,60.2,56.0,30.19,ESE,123,0.0,-999.0,85,-99.99,,,0.00,weatherlink.com 1.10,2013-10-15 22:26:00,
2013-10-15 18:41:00,59.5,56.0,30.19,ESE,123,0.0,-999.0,87,-99.99,,,0.00,weatherlink.com 1.10,2013-10-15 22:41:00,
2013-10-15 18:56:00,58.8,55.0,30.19,ESE,123,0.0,-999.0,87,-99.99,,,0.00,weatherlink.com 1.10,2013-10-15 22:56:00,
2013-10-15 19:12:00,58.2,54.0,30.19,ESE,123,0.0,-999.0,86,-99.99,,,0.00,weatherlink.com 1.10,2013-10-15 23:12:00,
2013-10-15 19:27:00,57.7,54.0,30.20,ESE,123,0.0,-999.0,88,-99.99,,,0.00,weatherlink.com 1.10,2013-10-15 23:27:00,
2013-10-15 19:42:00,57.1,54.0,30.19,ESE,123,0.0,-999.0,88,-99.99,,,0.00,weatherlink.com 1.10,2013-10-15 23:42:00,
2013-10-15 19:57:00,56.3,53.0,30.19,ESE,123,0.0,-999.0,89,-99.99,,,0.00,weatherlink.com 1.10,2013-10-15 23:57:00,
2013-10-15 20:12:00,55.5,53.0,30.19,ESE,123,0.0,-999.0,90,-99.99,,,0.00,weatherlink.com 1.10,2013-10-16 00:12:00,
2013-10-15 20:27:00,55.0,53.0,30.20,ESE,123,0.0,-999.0,91,-99.99,,,0.00,weatherlink.com 1.10,2013-10-16 00:27:00,
2013-10-15 20:42:00,54.9,53.0,30.20,ESE,123,0.0,-999.0,92,-99.99,,,0.00,weatherlink.com 1.10,2013-10-16 00:42:00,
2013-10-15 20:57:00,54.9,53.0,30.20,ESE,123,0.0,-999.0,93,-99.99,,,0.00,weatherlink.com 1.10,2013-10-16 00:57:00,
2013-10-15 21:12:00,54.9,53.0,30.20,ESE,123,0.0,-999.0,93,-99.99,,,0.00,weatherlink.com 1.10,2013-10-16 01:12:00,
2013-10-15 21:27:00,54.9,53.0,30.20,ESE,123,0.0,-999.0,93,-99.99,,,0.00,weatherlink.com 1.10,2013-10-16 01:27:00,
2013-10-15 21:42:00,54.8,53.0,30.20,ESE,123,0.0,-999.0,93,-99.99,,,0.00,weatherlink.com 1.10,2013-10-16 01:42:00,
2013-10-15 21:57:00,54.7,53.0,30.20,ESE,123,0.0,-999.0,93,-99.99,,,0.00,weatherlink.com 1.10,2013-10-16 01:57:00,
2013-10-15 22:13:00,54.4,52.0,30.19,ESE,123,0.0,-999.0,92,-99.99,,,0.00,weatherlink.com 1.10,2013-10-16 02:13:00,
2013-10-15 22:28:00,53.7,52.0,30.19,ESE,123,0.0,-999.0,92,-99.99,,,0.00,weatherlink.com 1.10,2013-10-16 02:28:00,
2013-10-15 22:43:00,53.1,51.0,30.19,ESE,123,0.0,-999.0,93,-99.99,,,0.00,weatherlink.com 1.10,2013-10-16 02:43:00,
2013-10-15 22:59:00,52.7,51.0,30.19,ESE,123,0.0,-999.0,94,-99.99,,,0.00,weatherlink.com 1.10,2013-10-16 02:59:00,
2013-10-15 23:13:00,52.6,51.0,30.19,ESE,123,0.0,-999.0,94,-99.99,,,0.00,weatherlink.com 1.10,2013-10-16 03:13:00,
2013-10-15 23:28:00,52.5,51.0,30.18,ESE,123,0.0,-999.0,95,-99.99,,,0.00,weatherlink.com 1.10,2013-10-16 03:28:00,
2013-10-15 23:43:00,52.5,51.0,30.17,ESE,123,0.0,-999.0,95,-99.99,,,0.00,weatherlink.com 1.10,2013-10-16 03:43:00,
2013-10-15 23:58:00,52.3,51.0,30.17,ESE,123,0.0,-999.0,95,-99.99,,,0.00,weatherlink.com 1.10,2013-10-16 03:58:00,